Vorticity
8 11 12 7 2 15 9 6 27 24 11 7 12 15 18 8 1 -0 -0 3 3 -1 6 3 6 7 7 8 9 6 1 -3 9 23 4 6 8 6 7 9 8 8 7 8
7 1 7 10 2 4 14 23 18 9 8 10 11 17 15 2 4 10 4 4 8 14 14 11 10 2 2 3 0 8 16 13 4 4 7 9 14 16 13 9 7 6 6 6
-1 13 5 -0 4 20 6 16 8 2 2 20 27 6 13 14 8 8 7 10 14 19 26 15 5 13 13 12 17 20 12 7 6 7 12 13 10 9 7 5 8 8 5 5
16 13 9 6 3 8 11 13 -3 2 1 2 -17 12 12 16 16 12 12 11 14 9 3 10 10 10 13 12 12 6 4 3 4 8 3 -4 -4 0 5 9 11 11 13 11
13 3 6 14 10 6 15 5 11 15 20 8 14 12 30 4 3 3 4 4 3 -8 4 4 15 11 4 8 12 12 9 9 4 3 -2 6 7 2 7 10 8 9 6 4
5 7 4 9 12 10 11 7 4 6 2 11 5 9 34 -2 2 0 -2 1 0 -7 6 1 -1 -5 -8 19 -11 -5 17 3 1 1 5 9 9 6 11 8 8 6 5 10
2 14 15 24 -2 4 12 16 9 4 10 6 2 16 8 11 5 9 14 2 6 13 3 6 10 -16 -2 4 14 -5 14 -0 -2 -2 4 8 15 4 6 6 8 11 11 10
6 2 4 18 -4 5 11 17 10 11 10 5 11 7 2 48 -8 15 2 12 7 4 -10 -5 -10 9 5 9 4 4 4 6 -5 -5 7 11 7 6 10 12 12 14 8 16
0 12 9 16 13 2 10 10 10 6 8 12 10 14 11 17 17 -3 4 -3 -14 -3 12 11 -3 3 7 9 -2 2 3 0 -0 -2 13 8 12 17 14 12 12 -7 4 10
14 7 12 6 9 25 14 2 6 12 7 7 11 18 -3 0 7 7 1 16 29 24 -4 3 11 6 8 -1 -6 6 -2 4 11 12 9 13 13 9 9 12 8 16 5 -5
15 4 15 1 6 3 -1 1 7 10 7 8 7 18 15 20 20 -1 15 12 -2 -0 13 8 2 4 4 2 8 -3 4 11 9 11 17 13 4 8 8 9 2 9 15 12
5 16 4 4 11 7 6 12 1 9 11 7 5 15 12 19 3 11 9 12 10 0 3 8 12 6 3 1 1 -3 6 11 13 12 7 6 8 7 6 4 8 9 5 5
10 23 -1 11 8 5 6 5 4 4 8 10 -1 10 14 14 8 -0 -4 1 -0 7 9 9 9 2 5 -2 -6 7 11 12 10 4 8 10 8 7 7 6 5 4 21 21
14 23 1 -6 12 24 2 9 -0 1 14 -3 -9 -14 22 4 -2 7 1 5 13 14 12 9 6 -0 -3 -3 7 12 11 8 8 11 8 6 6 8 9 1 15 14 9 7
10 10 8 5 5 1 2 3 3 7 6 4 1 12 12 8 3 10 17 4 11 12 5 0 -3 -4 3 6 10 12 9 9 9 7 5 4 6 11 19 18 9 16 6 16
6 2 13 7 3 5 3 9 10 4 7 19 20 15 21 18 19 10 2 7 13 6 3 -0 9 0 10 4 11 12 8 8 7 6 12 16 13 16 13 9 17 12 16 18
6 11 10 18 11 15 34 22 6 20 1 10 1 11 7 5 14 9 5 10 5 0 -1 0 0 6 11 15 9 8 9 9 8 13 11 11 13 13 15 14 14 17 18 22
7 14 7 8 15 13 6 18 17 7 2 2 7 10 11 15 16 8 6 4 2 2 3 4 11 16 16 7 7 9 9 10 11 9 10 12 15 14 13 11 16 14 15 27
7 8 0 -3 25 -13 -2 -3 -3 7 9 12 5 11 9 11 10 9 2 2 5 8 14 13 11 14 7 8 8 10 10 9 9 12 16 15 11 14 9 13 11 13 15 12
20 11 -1 14 4 -4 19 22 18 15 7 28 28 19 15 9 10 3 -8 7 6 2 13 22 9 6 7 8 9 10 9 11 12 16 13 9 9 9 9 13 12 17 20 18
9 14 8 12 -10 16 7 16 13 10 -15 -6 12 5 5 13 15 -6 5 10 11 15 15 8 5 6 7 8 9 10 11 11 14 13 7 10 13 17 10 11 15 16 21 14
13 16 17 31 12 18 35 20 1 -2 -4 6 15 6 2 14 10 2 8 11 22 14 10 5 6 8 8 9 11 11 10 9 12 9 10 12 13 14 14 15 16 21 10 6
12 13 -6 -3 -5 -12 3 -5 -22 11 6 0 16 1 9 -7 5 14 12 19 14 9 3 5 8 9 9 9 10 10 7 6 10 12 12 10 15 17 16 15 20 9 12 10
9 12 3 16 15 10 8 6 -1 3 14 6 16 5 8 -14 28 21 19 14 6 2 6 9 8 10 9 11 10 9 7 7 6 13 14 9 20 18 13 17 13 13 11 10
5 2 3 5 7 10 12 14 18 17 -8 20 16 -5 14 28 18 14 14 6 4 5 8 9 10 9 10 11 10 8 7 7 7 10 15 13 20 14 14 15 13 12 11 9
10 15 14 11 16 15 13 13 12 11 20 10 7 11 16 7 14 13 6 4 3 7 8 10 9 9 11 11 11 9 5 7 10 9 16 15 16 13 16 14 12 11 11 9
Height
3139 3140 3140 3141 3143 3144 3145 3145 3145 3147 3149 3151 3151 3150 3148 3150 3153 3154 3156 3156 3156 3155 3154 3157 3159 3160 3161 3163 3163 3161 3159 3160 3158 3157 3156 3154 3152 3149 3147 3145 3143 3139 3136 3133
3140 3139 3140 3141 3143 3145 3144 3144 3145 3147 3149 3151 3150 3149 3149 3151 3154 3155 3155 3154 3154 3154 3154 3154 3156 3159 3160 3161 3161 3159 3158 3158 3156 3153 3151 3149 3146 3144 3143 3140 3137 3133 3130 3125
3138 3141 3142 3143 3144 3145 3145 3145 3145 3147 3147 3148 3149 3150 3150 3152 3154 3154 3154 3154 3153 3154 3154 3155 3156 3158 3158 3158 3157 3155 3154 3152 3151 3150 3147 3145 3142 3139 3138 3135 3131 3126 3122 3117
3140 3141 3142 3143 3144 3145 3146 3146 3146 3147 3148 3148 3149 3152 3150 3150 3151 3152 3153 3153 3154 3155 3156 3156 3157 3156 3155 3154 3153 3152 3151 3149 3148 3147 3144 3143 3141 3138 3133 3127 3122 3118 3113 3107
3141 3141 3142 3143 3144 3144 3146 3146 3146 3147 3147 3147 3148 3149 3148 3150 3151 3151 3152 3154 3155 3155 3157 3156 3155 3154 3153 3152 3151 3150 3148 3145 3142 3140 3138 3135 3131 3127 3122 3118 3113 3106 3101 3096
3140 3141 3142 3143 3143 3143 3144 3144 3145 3145 3145 3145 3145 3145 3145 3144 3146 3149 3151 3152 3154 3155 3156 3154 3153 3153 3151 3150 3149 3147 3145 3141 3138 3135 3131 3128 3124 3119 3114 3109 3103 3097 3092 3087
3140 3140 3141 3141 3143 3143 3142 3142 3143 3146 3146 3144 3143 3143 3141 3142 3144 3148 3149 3150 3150 3151 3151 3150 3150 3150 3148 3146 3143 3140 3138 3135 3132 3128 3125 3120 3116 3111 3106 3100 3094 3089 3083 3078
3139 3141 3141 3141 3142 3142 3141 3140 3140 3142 3146 3142 3142 3141 3140 3140 3144 3146 3147 3147 3146 3147 3149 3149 3147 3147 3144 3141 3138 3136 3133 3130 3126 3122 3117 3112 3107 3103 3097 3091 3085 3079 3073 3068
3137 3139 3140 3140 3140 3142 3140 3140 3141 3140 3142 3143 3143 3142 3141 3140 3142 3142 3143 3143 3143 3145 3145 3144 3142 3141 3140 3136 3134 3132 3129 3125 3120 3115 3110 3105 3100 3094 3088 3081 3076 3070 3063 3056
3136 3138 3139 3140 3140 3140 3140 3141 3141 3140 3144 3144 3141 3140 3137 3138 3139 3141 3143 3143 3140 3139 3139 3138 3137 3136 3134 3132 3131 3128 3125 3121 3116 3109 3103 3096 3090 3084 3078 3071 3065 3059 3053 3047
3135 3136 3140 3140 3140 3140 3140 3139 3140 3141 3141 3142 3144 3137 3135 3135 3137 3139 3139 3137 3137 3136 3136 3136 3135 3132 3129 3127 3124 3121 3117 3111 3105 3099 3093 3087 3080 3074 3068 3062 3056 3049 3044 3038
3134 3135 3136 3139 3138 3139 3139 3139 3139 3139 3141 3140 3140 3136 3133 3133 3135 3135 3134 3134 3134 3134 3133 3131 3129 3127 3125 3122 3119 3114 3110 3103 3096 3090 3084 3077 3071 3064 3059 3053 3046 3040 3034 3028
3132 3133 3135 3138 3140 3138 3137 3138 3138 3138 3139 3137 3138 3133 3131 3131 3132 3132 3132 3131 3130 3129 3128 3126 3124 3122 3119 3115 3111 3107 3101 3094 3088 3082 3077 3071 3064 3057 3050 3044 3037 3031 3025 3019
3130 3131 3131 3133 3133 3134 3135 3135 3136 3136 3136 3134 3131 3130 3129 3128 3129 3130 3129 3128 3126 3125 3123 3121 3119 3116 3112 3109 3104 3097 3092 3086 3081 3075 3068 3062 3056 3050 3042 3035 3027 3020 3015 3008
3129 3129 3130 3131 3131 3132 3133 3133 3132 3131 3131 3130 3127 3126 3126 3126 3126 3125 3124 3122 3121 3119 3118 3116 3113 3111 3106 3100 3094 3089 3083 3077 3071 3066 3061 3054 3048 3040 3032 3025 3018 3011 3006 2999
3126 3127 3128 3129 3129 3129 3129 3128 3127 3126 3125 3124 3122 3121 3122 3121 3120 3120 3120 3119 3117 3115 3113 3110 3108 3104 3098 3092 3087 3082 3075 3069 3064 3059 3052 3044 3036 3029 3022 3016 3009 3003 2996 2989
3125 3125 3126 3127 3126 3126 3124 3121 3121 3121 3119 3119 3116 3117 3117 3117 3116 3116 3115 3113 3112 3110 3107 3104 3099 3095 3089 3084 3079 3074 3068 3062 3056 3049 3041 3034 3026 3020 3013 3007 3001 2994 2989 2983
3122 3124 3125 3124 3124 3125 3116 3115 3115 3116 3116 3115 3113 3113 3113 3112 3111 3111 3110 3108 3106 3103 3099 3095 3091 3086 3081 3076 3071 3066 3060 3053 3046 3039 3032 3026 3019 3012 3007 2999 2994 2987 2982 2977
3119 3120 3121 3121 3119 3115 3113 3112 3112 3111 3111 3110 3109 3108 3108 3107 3106 3105 3104 3101 3098 3095 3092 3088 3084 3079 3074 3069 3064 3058 3051 3045 3039 3032 3025 3017 3011 3005 2999 2992 2987 2981 2976 2972
3114 3115 3118 3116 3116 3113 3108 3107 3108 3107 3104 3105 3104 3104 3103 3102 3100 3100 3097 3094 3091 3088 3084 3081 3077 3072 3067 3061 3056 3050 3044 3038 3031 3024 3016 3010 3004 2998 2992 2985 2979 2974 2970 2966
3110 3110 3111 3111 3110 3105 3104 3103 3104 3106 3105 3101 3100 3099 3097 3096 3095 3093 3091 3087 3084 3080 3077 3073 3068 3064 3059 3054 3048 3043 3037 3030 3023 3016 3009 3003 2996 2990 2985 2978 2973 2968 2964 2961
3107 3107 3106 3106 3106 3100 3098 3097 3099 3100 3097 3096 3094 3093 3092 3091 3089 3086 3082 3080 3076 3073 3069 3066 3062 3058 3052 3047 3042 3035 3028 3022 3015 3008 3002 2996 2989 2984 2978 2972 2967 2964 2961 2958
3103 3102 3102 3102 3098 3094 3093 3094 3094 3093 3092 3089 3088 3087 3086 3084 3081 3078 3075 3072 3069 3066 3063 3059 3055 3050 3044 3039 3033 3027 3021 3015 3008 3001 2995 2988 2983 2977 2971 2967 2963 2959 2956 2954
3096 3097 3094 3094 3093 3092 3090 3089 3087 3086 3084 3083 3081 3080 3078 3076 3073 3069 3066 3064 3062 3060 3057 3052 3048 3042 3037 3031 3025 3020 3014 3008 3001 2994 2988 2982 2976 2970 2965 2961 2958 2955 2953 2950
3093 3091 3089 3086 3087 3086 3085 3084 3082 3080 3077 3075 3074 3073 3070 3067 3062 3061 3060 3058 3056 3053 3049 3045 3039 3034 3029 3023 3017 3012 3006 3000 2994 2988 2981 2975 2969 2964 2960 2957 2954 2951 2949 2946
3086 3085 3082 3078 3080 3077 3076 3075 3073 3072 3069 3067 3066 3064 3061 3057 3055 3054 3053 3052 3049 3045 3041 3037 3033 3027 3021 3015 3010 3004 2999 2993 2987 2981 2975 2969 2963 2959 2955 2952 2949 2947 2945 2942